When you browse on this site, cookies collect data to enhance your experience and personalize the content and advertising you see.
Visit our Privacy Policy to learn more. By continuing to use the site, you agree to this use of cookies and data.
  • In United Kingdom
  • List of Countries
  • For 7 days
  • Water Temperature
  • Weather Map
  • Weather Widgets
  • user-avatar
    Login

    Hourly Weather Abertillery

    Today, 28 February, Friday

    Time Temperature Precipitation Wind Pressure Humidity
    00:00 +1°C° 0 mm 2 mps 739 mmHg 87%
    01:00 +1°C° 0 mm 3 mps 738 mmHg 86%
    02:00 +1°C° 0 mm 3 mps 738 mmHg 85%
    03:00 +1°C° 0 mm 3 mps 737 mmHg 84%
    04:00 0°C° 0.1 mm 4 mps 736 mmHg 86%
    05:00 0°C° 0.1 mm 5 mps 736 mmHg 87%
    06:00 +1°C° 0.1 mm 5 mps 735 mmHg 89%
    07:00 +1°C° 1.1 mm 6 mps 733 mmHg 91%
    08:00 +2°C° 1.1 mm 7 mps 732 mmHg 93%
    09:00 +1°C° 1.1 mm 8 mps 731 mmHg 96%
    10:00 +2°C° 2.5 mm 8 mps 730 mmHg 96%
    11:00 +5°C° 2.5 mm 7 mps 729 mmHg 97%
    12:00 +6°C° 2.5 mm 7 mps 728 mmHg 97%
    13:00 +6°C° 1.4 mm 8 mps 728 mmHg 96%
    14:00 +7°C° 1.4 mm 9 mps 727 mmHg 94%
    15:00 +7°C° 1.4 mm 10 mps 727 mmHg 92%
    16:00 +7°C° 1 mm 10 mps 726 mmHg 93%
    17:00 +7°C° 1 mm 10 mps 726 mmHg 93%
    18:00 +7°C° 1 mm 9 mps 725 mmHg 94%
    19:00 +7°C° 1.6 mm 9 mps 724 mmHg 94%
    20:00 +7°C° 1.6 mm 9 mps 723 mmHg 94%
    21:00 +7°C° 1.6 mm 10 mps 722 mmHg 94%
    22:00 +7°C° 0.8 mm 10 mps 721 mmHg 93%
    23:00 +7°C° 0.8 mm 10 mps 720 mmHg 92%

    Tomorrow, 29 February, Saturday

    Time Temperature Precipitation Wind Pressure Humidity
    00:00 +7°C° 0.8 mm 11 mps 719 mmHg 92%
    01:00 +7°C° 1.4 mm 12 mps 718 mmHg 92%
    02:00 +7°C° 1.4 mm 12 mps 716 mmHg 92%
    03:00 +7°C° 1.4 mm 13 mps 715 mmHg 93%
    04:00 +4°C° 0.8 mm 12 mps 715 mmHg 89%
    05:00 +3°C° 0.8 mm 10 mps 715 mmHg 86%
    06:00 +1°C° 0.8 mm 9 mps 715 mmHg 83%
    07:00 +1°C° 0.1 mm 9 mps 716 mmHg 83%
    08:00 0°C° 0.1 mm 9 mps 716 mmHg 82%
    09:00 -1°C° 0.1 mm 9 mps 716 mmHg 82%
    10:00 0°C° 0.2 mm 10 mps 716 mmHg 77%
    11:00 -1°C° 0.2 mm 12 mps 717 mmHg 71%
    12:00 0°C° 0.2 mm 13 mps 717 mmHg 65%
    13:00 0°C° 0.1 mm 13 mps 717 mmHg 65%
    14:00 0°C° 0.1 mm 13 mps 717 mmHg 65%
    15:00 0°C° 0.1 mm 13 mps 717 mmHg 65%
    16:00 0°C° 0.1 mm 12 mps 717 mmHg 69%
    17:00 -1°C° 0.1 mm 11 mps 718 mmHg 73%
    18:00 0°C° 0.1 mm 10 mps 718 mmHg 76%
    19:00 -2°C° 0.2 mm 10 mps 718 mmHg 75%
    20:00 -2°C° 0.2 mm 10 mps 718 mmHg 74%
    21:00 -2°C° 0.2 mm 10 mps 718 mmHg 72%
    22:00 -2°C° 0.1 mm 10 mps 718 mmHg 73%
    23:00 -1°C° 0.1 mm 11 mps 719 mmHg 74%

    Day after tomorrow, 1 March, Sunday

    Time Temperature Precipitation Wind Pressure Humidity
    00:00 -1°C° 0.1 mm 11 mps 719 mmHg 74%
    01:00 0°C° 0.1 mm 10 mps 719 mmHg 75%
    02:00 0°C° 0.1 mm 10 mps 719 mmHg 76%
    03:00 0°C° 0.1 mm 9 mps 719 mmHg 76%
    04:00 -1°C° 0.1 mm 9 mps 719 mmHg 76%
    05:00 -1°C° 0.1 mm 8 mps 719 mmHg 76%
    06:00 -1°C° 0.1 mm 8 mps 719 mmHg 76%
    07:00 0°C° 0.1 mm 8 mps 719 mmHg 75%
    08:00 0°C° 0.1 mm 8 mps 719 mmHg 74%
    09:00 0°C° 0.1 mm 8 mps 720 mmHg 74%
    10:00 +1°C° 0.2 mm 8 mps 720 mmHg 72%
    11:00 +2°C° 0.2 mm 9 mps 720 mmHg 71%
    12:00 +2°C° 0.2 mm 9 mps 720 mmHg 70%
    13:00 +2°C° 0.2 mm 9 mps 720 mmHg 71%
    14:00 +2°C° 0.2 mm 9 mps 720 mmHg 71%
    15:00 +2°C° 0.2 mm 9 mps 720 mmHg 72%
    16:00 +1°C° 0.1 mm 8 mps 719 mmHg 75%
    17:00 0°C° 0.1 mm 7 mps 719 mmHg 77%
    18:00 +1°C° 0.1 mm 5 mps 719 mmHg 80%
    19:00 0°C° 0 mm 5 mps 719 mmHg 83%
    20:00 0°C° 0 mm 4 mps 719 mmHg 85%
    21:00 -1°C° 0 mm 4 mps 719 mmHg 87%
    22:00 0°C° 0 mm 3 mps 719 mmHg 87%
    23:00 0°C° 0 mm 3 mps 719 mmHg 87%

    2 March, Monday

    Time Temperature Precipitation Wind Pressure Humidity
    00:00 -1°C° 0 mm 2 mps 719 mmHg 87%
    01:00 -1°C° 0 mm 2 mps 719 mmHg 86%
    02:00 -1°C° 0 mm 3 mps 719 mmHg 86%
    03:00 -1°C° 0 mm 3 mps 719 mmHg 86%
    04:00 -1°C° 0 mm 3 mps 720 mmHg 85%
    05:00 -1°C° 0 mm 3 mps 720 mmHg 85%
    06:00 -1°C° 0 mm 3 mps 721 mmHg 85%
    07:00 -1°C° 0 mm 4 mps 721 mmHg 79%
    08:00 0°C° 0 mm 5 mps 722 mmHg 74%
    09:00 +1°C° 0 mm 6 mps 722 mmHg 69%
    10:00 +2°C° 0.1 mm 7 mps 723 mmHg 66%
    11:00 +2°C° 0.1 mm 7 mps 723 mmHg 64%
    12:00 +2°C° 0.1 mm 8 mps 724 mmHg 61%
    13:00 +2°C° 0.2 mm 8 mps 724 mmHg 62%
    14:00 +2°C° 0.2 mm 8 mps 724 mmHg 63%
    15:00 +2°C° 0.2 mm 8 mps 724 mmHg 64%
    16:00 +2°C° 0.1 mm 7 mps 725 mmHg 68%
    17:00 +1°C° 0.1 mm 6 mps 725 mmHg 72%
    18:00 0°C° 0.1 mm 5 mps 726 mmHg 76%
    19:00 -1°C° 0 mm 5 mps 727 mmHg 78%
    20:00 -1°C° 0 mm 5 mps 727 mmHg 80%
    21:00 -1°C° 0 mm 5 mps 728 mmHg 81%
    22:00 -1°C° 0 mm 5 mps 728 mmHg 81%
    23:00 -2°C° 0 mm 6 mps 729 mmHg 80%

    3 March, Tuesday

    Time Temperature Precipitation Wind Pressure Humidity
    00:00 -3°C° 0 mm 6 mps 729 mmHg 80%
    01:00 -3°C° 0 mm 6 mps 729 mmHg 80%
    02:00 -3°C° 0 mm 6 mps 730 mmHg 80%
    03:00 -3°C° 0 mm 6 mps 730 mmHg 80%
    04:00 -3°C° 0 mm 6 mps 730 mmHg 80%
    05:00 -2°C° 0 mm 5 mps 731 mmHg 79%
    06:00 -2°C° 0 mm 5 mps 731 mmHg 78%
    07:00 -1°C° 0 mm 5 mps 731 mmHg 75%
    08:00 -1°C° 0 mm 6 mps 732 mmHg 72%
    09:00 +1°C° 0 mm 6 mps 732 mmHg 69%
    10:00 +2°C° 0.1 mm 6 mps 732 mmHg 67%
    11:00 +3°C° 0.1 mm 6 mps 732 mmHg 64%
    12:00 +4°C° 0.1 mm 6 mps 732 mmHg 61%
    13:00 +5°C° 0.1 mm 5 mps 732 mmHg 61%
    14:00 +5°C° 0.1 mm 5 mps 732 mmHg 61%
    15:00 +5°C° 0.1 mm 5 mps 731 mmHg 61%
    16:00 +3°C° 0 mm 4 mps 731 mmHg 66%
    17:00 +2°C° 0 mm 3 mps 731 mmHg 72%
    18:00 +2°C° 0 mm 2 mps 731 mmHg 77%
    19:00 +1°C° 0 mm 2 mps 731 mmHg 79%
    20:00 +1°C° 0 mm 1 mps 731 mmHg 80%
    21:00 +1°C° 0 mm 1 mps 731 mmHg 81%
    22:00 0°C° 0 mm 1 mps 731 mmHg 82%
    23:00 0°C° 0 mm 1 mps 731 mmHg 82%

    4 March, Wednesday

    Time Temperature Precipitation Wind Pressure Humidity
    00:00 0°C° 0 mm 1 mps 731 mmHg 82%
    01:00 0°C° 0 mm 1 mps 730 mmHg 82%
    02:00 0°C° 0 mm 1 mps 730 mmHg 82%
    03:00 0°C° 0 mm 1 mps 730 mmHg 82%
    04:00 0°C° 0 mm 1 mps 730 mmHg 82%
    05:00 0°C° 0 mm 1 mps 730 mmHg 82%
    06:00 0°C° 0 mm 1 mps 731 mmHg 82%
    07:00 +1°C° 0 mm 1 mps 731 mmHg 77%
    08:00 +2°C° 0 mm 1 mps 731 mmHg 72%
    09:00 +2°C° 0 mm 2 mps 731 mmHg 68%
    10:00 +3°C° 0 mm 2 mps 731 mmHg 65%
    11:00 +3°C° 0 mm 3 mps 731 mmHg 62%
    12:00 +4°C° 0 mm 3 mps 730 mmHg 60%
    13:00 +5°C° 0 mm 4 mps 730 mmHg 63%
    14:00 +5°C° 0 mm 4 mps 730 mmHg 65%
    15:00 +5°C° 0 mm 5 mps 729 mmHg 68%
    16:00 +3°C° 0 mm 5 mps 729 mmHg 71%
    17:00 +2°C° 0 mm 5 mps 729 mmHg 74%
    18:00 +1°C° 0 mm 5 mps 728 mmHg 77%
    19:00 0°C° 0 mm 5 mps 728 mmHg 78%
    20:00 0°C° 0 mm 5 mps 729 mmHg 78%
    21:00 -1°C° 0 mm 5 mps 729 mmHg 79%
    22:00 -1°C° 0 mm 5 mps 729 mmHg 80%
    23:00 -2°C° 0 mm 4 mps 730 mmHg 82%
    Show more